Weather in Bolshoye Zaborovye

Russia / Novgorod Oblast     58°52′36″N   33°02′20″E
temp.,
°C
wind,
m/s
gust,
m/s
humid.,
%
clouds,
%
prec.,
mm/h
press.,
hPa
HPBL,
m
24 october, sun
sun2400:00+2nnw4996100 0.3 1007516
03:00+2nw489291 0.5 1010725
06:00+1nnw5108888 0.1 1013853
09:00+1nnw3109047 0.1 1016728
12:00+2nw477799 0.3 10191021
15:00+3nnw477083 0.6 10211227
18:00−1nw278286 0.1 1024186
21:00−1wnw26895 0.1 1025158
25 october, mon
mon2500:00−2wsw248880 0.0 1025101
03:00−1ssw2785100 0.0 1025255
06:000ssw31082100 0.0 1024437
09:00+1ssw51490100 0.4 1021617
12:00+2sw51490100 1.1 1020619
15:00+4sw51389100 1.2 1018800
18:00+5sw51286100 0.0 1018915
21:00+5wsw51283100 0.0 1017749
26 october, tue
tue2600:00+3sw4129136 0.0 1017441
03:00+2sw41194100 0.0 1016383
06:00+1sw41193100 0.0 1016398
09:00+2ssw41290100 0.0 1015437
12:00+4sw4108266 0.0 1014530
15:00+5sw4107994 0.0 1013646
18:00+4sw41185100 0.0 1013541
21:00+4sw41187100 0.0 1012472
27 october, wed
wed2700:00+5ssw41189100 0.0 1011463
03:00+5ssw41293100 0.4 1009506
06:00+5sw41196100 2.9 1008643
09:00+6wsw41196100 3.6 1008681
12:00+6wsw41088100 0.3 1009876
15:00+7wsw51185100 1.1 10101109
18:00+6wsw4128847 0.1 1011757
21:00+6w51189100 0.2 10121030
28 october, thu
thu2800:00+6w4108869 0.1 1013502
03:00+5wsw3794100 0.1 1014383
06:00+5sw2598100 0.0 1013249
09:00+5s2698100 0.3 1013271
12:00+6se1399100 1.6 1013114
15:00+6ene2398100 2.1 1013139
18:00+6ne3893100 0.6 1016506
21:00+5ene3689100 0.8 1020616